Location: Flotzheim
(48.8375°N, 10.8136°E)
Time: 03:54:35
(UTC+00:00)

ISS - Pass Details

Date: 23 January 2021
Orbit: 417 x 422 km, 51.6° (Epoch: 27 February)

Event Time Altitude Azimuth Distance (km) Brightness Sun altitude
Rises 16:49:35 0° 227° (SW) 2,365 1.5 -8.2°
Reaches altitude 10° 16:51:44 10° 221° (SW) 1,505 0.1 -8.6°
Maximum altitude 16:54:57 42° 149° (SSE) 615 -3.0 -9.1°
Enters shadow 16:57:41 13° 80° (E) 1,318 -1.9 -9.5°
